Location: Unspecified
(0.0000°N, 0.0000°E)
Time: 03:24:33
(UTC+00:00)

AO-109 - Pass Details

Date: 01 November 2021
Orbit: 473 x 523 km, 60.7° (Epoch: 27 November)

Event Time Altitude Azimuth Distance (km) Brightness Sun altitude
Rises 18:14:52 0° 335° (NNW) 2,522 ? -7.6°
Reaches altitude 10° 18:16:59 10° 336° (NNW) 1,653 ? -8.1°
Maximum altitude 18:20:41 84° 63° (ENE) 494 ? -9.0°
Drops below altitude 10° 18:24:29 10° 152° (SSE) 1,689 ? -9.9°
Sets 18:26:40 0° 153° (SSE) 2,584 ? -10.4°
